South Lake Tahoe, CA

4:17 AM PDT on June 27, 2017 (GMT -0700)
Lake Tahoe

Weather History for KTVL - June, 2014

Change the Weather History Date:

Monday, June 30, 2014

  Actual Average Record
Temperature  
Mean Temperature 66 °F 58 °F  
Max Temperature 88 °F 77 °F 89 °F (2013)
Min Temperature 43 °F 40 °F 25 °F (1968)
Degree Days  
Heating Degree Days 0 7  
Month to date heating degree days 210 311  
Since 1 June heating degree days 210 310  
Since 1 July heating degree days 6705 7732  
Cooling Degree Days 1 0  
Month to date cooling degree days 1 1  
Year to date cooling degree days 1 1  
Since 1 June cooling degree days 1 1  
Growing Degree Days 16 (Base 50)    
Moisture  
Dew Point 35 °F    
Average Humidity 40    
Maximum Humidity 70    
Minimum Humidity 9    
Precipitation  
Precipitation 0.00 in - 0.40 in (1992)
Month to date precipitation 0.02  
Year to date precipitation 12.42  
Sea Level Pressure  
Sea Level Pressure 30.01 in    
Wind  
Wind Speed 3 mph (ESE)    
Max Wind Speed 12 mph    
Max Gust Speed 17 mph    
Visibility 10 miles    
Events      
T = Trace of Precipitation, MM = Missing Value Source: NWS Daily Summary

Daily Weather History Graph

Daily Weather History Graph

Search for Another Location

Airport or City:

Trip Planner

Search our weather history database for the weather conditions in past years. The results will help you decide how hot, cold, wet, or windy it might be!

Date:

Astronomy

Jun. 30, 2014 Rise Set
Actual Time 5:37 AM PDT 8:29 PM PDT
Civil Twilight 5:06 AM PDT 9:01 PM PDT
Nautical Twilight 4:25 AM PDT 9:41 PM PDT
Astronomical Twilight 3:39 AM PDT 10:27 PM PDT
Moon 8:53 AM PDT (6/30) 10:27 PM PDT (6/30)
Length of Visible Light 15h 55m
Length of Day
14h 51m
Waxing Crescent, 11% of the Moon is Illuminated
Jun 30
Waxing Crescent
Jul 5
First Quarter
Jul 12
Full
Jul 18
Last Quarter
Jul 26
New

Hourly Weather History & Observations

Time (PDT) Temp. Windchill Dew Point Humidity Pressure Visibility Wind Dir Wind Speed Gust Speed Precip Events Conditions
12:53 AM 53.1 °F - 37.9 °F 57% 30.03 in 10.0 mi SSW 3.5 mph - N/A   Clear
1:53 AM 51.1 °F - 37.0 °F 59% 30.02 in 10.0 mi SSW 3.5 mph - N/A   Clear
2:53 AM 48.9 °F - 36.0 °F 61% 30.02 in 10.0 mi Calm Calm - N/A   Clear
3:53 AM 46.9 °F - 36.0 °F 66% 30.03 in 10.0 mi SSW 3.5 mph - N/A   Clear
4:53 AM 45.0 °F - 35.1 °F 68% 30.04 in 10.0 mi Calm Calm - N/A   Clear
5:53 AM 44.1 °F 42.5 °F 35.1 °F 71% 30.06 in 10.0 mi SSW 3.5 mph - N/A   Clear
6:53 AM 48.0 °F - 36.0 °F 63% 30.06 in 10.0 mi Calm Calm - N/A   Clear
7:53 AM 57.9 °F - 39.0 °F 49% 30.04 in 10.0 mi South 3.5 mph - N/A   Clear
8:53 AM 70.0 °F - 37.9 °F 31% 30.03 in 10.0 mi NE 4.6 mph - N/A   Clear
9:53 AM 73.9 °F - 39.0 °F 28% 30.04 in 10.0 mi Variable 4.6 mph - N/A   Clear
10:53 AM 75.9 °F - 39.0 °F 26% 30.04 in 10.0 mi Calm Calm - N/A   Clear
11:53 AM 80.1 °F - 37.9 °F 22% 30.03 in 10.0 mi Variable 3.5 mph - N/A   Clear
12:53 PM 82.0 °F - 37.9 °F 21% 30.02 in 10.0 mi Variable 5.8 mph - N/A   Clear
1:53 PM 84.0 °F - 37.0 °F 19% 30.00 in 10.0 mi NNE 9.2 mph - N/A   Clear
2:53 PM 87.1 °F - 34.0 °F 15% 29.98 in 10.0 mi Variable 6.9 mph - N/A   Clear
3:53 PM 86.0 °F - 33.1 °F 15% 29.98 in 10.0 mi NNE 9.2 mph - N/A   Clear
4:53 PM 87.1 °F - 28.9 °F 12% 29.98 in 10.0 mi NNE 6.9 mph - N/A   Clear
5:53 PM 88.0 °F - 21.0 °F 9% 29.96 in 10.0 mi NE 4.6 mph - N/A   Clear
6:53 PM 80.1 °F - 27.0 °F 14% 29.98 in 10.0 mi North 3.5 mph - N/A   Clear
7:53 PM 75.0 °F - 32.0 °F 21% 29.96 in 10.0 mi Calm Calm - N/A   Clear
8:53 PM 70.0 °F - 33.1 °F 26% 29.95 in 10.0 mi Calm Calm - N/A   Clear
10:53 PM 64.0 °F - 42.1 °F 45% 29.97 in 10.0 mi SW 3.5 mph - N/A   Clear
11:53 PM 60.1 °F - 42.1 °F 51% 29.97 in 10.0 mi Calm Calm - N/A   Clear